Location: ???? ??
(36.0534°N, 43.5630°E)
Time: 23:05:00
(UTC+00:00)

COSMOS 2428 - Pass Details

Date: 18 September 2019
Orbit: 846 x 856 km, 70.9° (Epoch: 14 October)

Event Time Altitude Azimuth Distance (km) Brightness Sun altitude
Rises 17:00:07 0° 332° (NNW) 3,411 6.6 -22.7°
Reaches altitude 10° 17:02:38 10° 328° (NNW) 2,472 5.8 -23.2°
Maximum altitude 17:08:06 51° 254° (WSW) 1,055 3.4 -24.2°
Enters shadow 17:11:44 21° 186° (S) 1,825 4.3 -24.9°
